[[{"header":{"parameterUnit":"m.s-1","parameterCategory":2,"la1":30.2991,"la2":30.254,"lo1":-89.0895,"lo2":-89.0444,"dy":0.0017,"dx":0.0017,"nx":28,"ny":28,"refTime":"2024-04-14T09:00:00:Z","depth":"0","parameterNumber":2,"parameterNumberName":"U-component_of_CURRENTS"},"data":[0,0,0,0,0,0,0,0,0,0,0,0,0,0,0,0,0,0,0,0,0,0,0,0,0,0,0,0,0,0,0,0,0,0,0,0,0,0,0,0,0,0,0,0,0,0,0,0,0,0,0,0,0,0,0,0,0,0,-0.3841,-0.3841,0,-0.3748,-0.3746,-0.3744,-0.3592,-0.359,-0.3588,-0.3586,-0.341,-0.3407,-0.3405,0,0,0,0,0,0,0,0,0,0,0,0,0,-0.3729,-0.3732,-0.3841,-0.3841,-0.384,-0.3748,-0.3746,-0.3744,-0.3592,-0.359,-0.3588,-0.3585,-0.3411,-0.3408,-0.3404,0,0,0,0,0,0,0,0,0,0,0,0,0,-0.3713,-0.3733,-0.3841,-0.3761,-0.3753,-0.3749,-0.3746,-0.3743,-0.3593,-0.359,-0.3587,-0.3584,-0.3412,-0.3408,-0.3404,-0.3435,0,0,-0.3391,-0.3389,0,0,0,0,0,0,0,0,-0.3714,-0.3716,-0.3773,-0.3766,-0.3758,-0.3687,-0.3642,-0.3639,-0.3594,-0.3644,-0.3586,-0.3583,-0.3503,-0.3491,-0.3468,-0.3427,-0.3419,-0.339,-0.3387,-0.3386,-0.3384,0,0,0,0,0,0,0,-0.3715,-0.3718,-0.3794,-0.3773,-0.3764,-0.3676,-0.367,-0.364,-0.3582,-0.3639,-0.363,-0.3636,-0.3497,-0.3473,-0.3463,-0.3417,-0.339,-0.3386,-0.3384,-0.3382,-0.3382,-0.3385,0,0,0,0,0,0,-0.3759,-0.3721,-0.3798,-0.3793,-0.3739,-0.3682,-0.3675,-0.3705,-0.3584,-0.3566,-0.3639,-0.3629,-0.3481,-0.3468,-0.3456,-0.3447,-0.3386,-0.3382,-0.3379,-0.338,-0.3383,-0.3386,0,0,0,0,0,0,-0.3757,-0.3767,-0.3801,-0.3759,-0.3759,-0.3689,-0.3722,-0.3705,-0.367,-0.3586,-0.3564,-0.3621,-0.3479,-0.3462,-0.3439,-0.3441,-0.338,-0.3376,-0.3377,-0.3381,-0.3384,-0.3455,0,0,0,0,0,0,-0.3754,-0.3768,-0.3786,-0.3764,-0.3763,-0.38,-0.3725,-0.3705,-0.3684,-0.367,-0.3565,-0.3546,-0.3475,-0.3446,-0.3435,-0.3434,-0.3372,-0.3373,-0.3379,-0.3383,-0.345,-0.3461,-0.3471,0,0,0,0,0,-0.3751,-0.3803,-0.3789,-0.3797,-0.3799,-0.3802,-0.3792,-0.3723,-0.3686,-0.3679,-0.3621,-0.3548,-0.3468,-0.3445,-0.3431,-0.3428,-0.3371,-0.3377,-0.3383,-0.3445,-0.3459,-0.3471,0,0,0,0,0,0,-0.3745,-0.3793,-0.3776,-0.3833,-0.3818,-0.378,-0.3766,-0.3739,-0.3688,-0.3662,-0.3581,-0.356,-0.3544,-0.3498,-0.3475,-0.3452,-0.3409,-0.3413,-0.3461,-0.3474,-0.3484,-0.3374,-0.3369,0,0,0,0,0,-0.3765,-0.3801,-0.3827,-0.3846,-0.3861,-0.3817,-0.3805,-0.3768,-0.3733,-0.3704,-0.3653,-0.3599,-0.3564,-0.3527,-0.3496,-0.3482,-0.3391,-0.3477,-0.3488,-0.3496,-0.3403,-0.3297,-0.3286,-0.3405,-0.3405,-0.3405,0,0,-0.3751,-0.3785,-0.3795,-0.3845,-0.382,-0.3802,-0.3798,-0.3788,-0.374,-0.3698,-0.3634,-0.3642,-0.3577,-0.3557,-0.3545,-0.3508,-0.3441,-0.3504,-0.3511,-0.341,-0.3301,-0.3288,-0.3277,-0.3409,-0.3408,-0.3408,0,0,-0.3699,-0.3791,-0.3774,-0.3787,-0.3789,-0.3795,-0.3804,-0.3798,-0.3767,-0.3741,-0.3708,-0.3705,-0.3654,-0.3602,-0.3566,-0.3621,-0.3516,-0.3651,-0.3582,-0.3485,-0.3471,-0.3457,-0.3416,-0.3397,-0.3636,-0.3636,-0.3636,0,-0.3658,-0.3665,-0.3761,-0.3738,-0.3734,-0.3794,-0.375,-0.3747,-0.3724,-0.3695,-0.3718,-0.3646,-0.3643,-0.3557,-0.3597,-0.363,-0.3575,-0.3536,-0.3489,-0.3473,-0.3457,-0.3417,-0.3396,-0.364,-0.364,-0.3639,-0.3639,0,-0.3566,-0.3576,-0.3578,-0.3575,-0.3602,-0.3593,-0.3635,-0.365,-0.3663,-0.3636,-0.3599,-0.3611,-0.3545,-0.3597,-0.3604,-0.3523,-0.3528,-0.353,-0.3437,-0.3448,-0.3409,-0.3385,-0.3646,-0.3644,-0.3643,-0.3642,0,0,-0.344,-0.3496,-0.3486,-0.3468,-0.3525,-0.3539,-0.3524,-0.3515,-0.3478,-0.3488,-0.3409,-0.3421,-0.3448,-0.3411,-0.3458,-0.3391,-0.3333,-0.3418,-0.3411,-0.334,-0.3143,-0.3093,-0.3063,-0.3324,-0.3318,-0.3314,-0.3191,0,-0.3302,-0.3249,-0.3321,-0.3265,-0.3253,-0.3349,-0.3333,-0.3343,-0.3367,-0.334,-0.3336,-0.3308,-0.337,-0.3386,-0.3321,-0.3348,-0.3258,-0.3366,-0.3168,-0.3161,-0.3082,-0.3026,-0.291,-0.2781,-0.3167,-0.3163,-0.316,0,-0.3142,-0.3156,-0.3079,-0.3132,-0.3139,-0.3128,-0.3159,-0.3157,-0.3155,-0.3168,-0.3125,-0.315,-0.3107,-0.3165,-0.3057,-0.3129,-0.3102,-0.3097,-0.3092,-0.2961,-0.3059,-0.2817,-0.2721,-0.27,-0.3122,-0.3125,-0.3128,0,-0.2976,-0.298,-0.2929,-0.2938,-0.3008,-0.2998,-0.3051,-0.3074,-0.3076,-0.3066,-0.3059,-0.2991,-0.2995,-0.2908,-0.295,-0.2991,-0.2817,-0.2877,-0.277,-0.2771,-0.2575,-0.2565,-0.2372,-0.2688,-0.2689,-0.2689,-0.2689,0,-0.2806,-0.2767,-0.2855,-0.2829,-0.2804,-0.2897,-0.2867,-0.2912,-0.2939,-0.2917,-0.2965,-0.2921,-0.2922,-0.2867,-0.2862,-0.2745,-0.2734,-0.2684,-0.2689,-0.2616,-0.2611,-0.2505,-0.2559,-0.2685,-0.2686,-0.2686,-0.2687,0,-0.2603,-0.2649,-0.261,-0.2685,-0.2712,-0.2701,-0.2799,-0.2791,-0.2842,-0.2816,-0.2815,-0.2848,-0.2787,-0.277,-0.2678,-0.2641,-0.2492,-0.2494,-0.2444,-0.2441,-0.2309,-0.2374,-0.2137,-0.2081,-0.232,-0.2317,-0.2315,0,-0.2486,-0.243,-0.2494,-0.2502,-0.2535,-0.2566,-0.2595,-0.2709,-0.2728,-0.2758,-0.2736,-0.2695,-0.2621,-0.2491,-0.2429,-0.2322,-0.2359,-0.2163,-0.2178,-0.2203,-0.2281,-0.2352,-0.2329,-0.2004,-0.2,-0.1996,-0.1993,0,-0.2273,-0.2287,-0.2293,-0.2311,-0.2345,-0.2391,-0.2459,-0.2444,-0.2564,-0.2549,-0.2499,-0.243,-0.2349,-0.22,-0.212,-0.2054,-0.2112,-0.2079,-0.2072,-0.1939,-0.2024,-0.2009,-0.226,-0.1959,-0.1962,-0.1965,-0.1967,-0.1968,-0.212,-0.2081,-0.2095,-0.211,-0.2153,-0.2174,-0.21,-0.216,-0.2132,-0.1997,-0.2203,-0.2028,-0.2046,-0.1898,-0.1846,-0.1727,-0.1832,-0.1675,-0.1738,-0.1797,-0.1743,-0.1939,-0.1673,-0.1674,-0.1676,-0.1677,-0.1678,0,-0.1949,-0.1925,-0.1909,-0.191,-0.1876,-0.1979,-0.1968,-0.1837,-0.1663,-0.1618,-0.1542,-0.1607,-0.1524,-0.1537,-0.1496,-0.1418,-0.1409,-0.1401,-0.1453,-0.1434,-0.1537,-0.1521,-0.1247,-0.1247,-0.1247,-0.1247,-0.1247,-0.1248,-0.1869,-0.1778,-0.1777,-0.1645,-0.1627,-0.1476,-0.1396,-0.122,-0.1106,-0.0885,-0.0841,-0.088,-0.1167,-0.1426,-0.1372,-0.1299,-0.1296,-0.1249,-0.1312,-0.1397,-0.1428,-0.1458,-0.145,-0.1166,-0.1166,-0.1129,-0.1129,-0.1129]},{"header":{"parameterUnit":"m.s-1","parameterCategory":2,"la1":30.2991,"la2":30.254,"lo1":-89.0895,"lo2":-89.0444,"dy":0.0017,"dx":0.0017,"nx":28,"ny":28,"refTime":"2024-04-14T09:00:00:Z","depth":"0","parameterNumber":3,"parameterNumberName":"V-component_of_CURRENTS"},"data":[0,0,0,0,0,0,0,0,0,0,0,0,0,0,0,0,0,0,0,0,0,0,0,0,0,0,0,0,0,0,0,0,0,0,0,0,0,0,0,0,0,0,0,0,0,0,0,0,0,0,0,0,0,0,0,0,0,0,0.0422,0.0423,0,0.0522,0.0523,0.0524,0.0582,0.0582,0.0583,0.0583,0.0698,0.0701,0.0704,0,0,0,0,0,0,0,0,0,0,0,0,0,0.0262,0.0264,0.0422,0.0423,0.0424,0.0522,0.0523,0.0524,0.0582,0.0582,0.0583,0.0583,0.0697,0.0701,0.0704,0,0,0,0,0,0,0,0,0,0,0,0,0,0.0343,0.0265,0.0422,0.0465,0.047,0.0521,0.0523,0.0525,0.0582,0.0582,0.0583,0.0583,0.0696,0.07,0.0705,0.0724,0,0,0.0718,0.072,0,0,0,0,0,0,0,0,0.0339,0.0349,0.0457,0.0462,0.0468,0.054,0.0509,0.0592,0.0582,0.0539,0.0583,0.0583,0.0647,0.0655,0.0673,0.0729,0.0734,0.0718,0.0721,0.0723,0.0724,0,0,0,0,0,0,0,0.0333,0.0345,0.0461,0.0459,0.0465,0.0473,0.0485,0.0525,0.059,0.0543,0.0548,0.0559,0.065,0.0668,0.0676,0.0736,0.0718,0.0722,0.0724,0.0726,0.0782,0.0781,0,0,0,0,0,0,0.0322,0.034,0.0458,0.0464,0.0403,0.0475,0.0489,0.0516,0.0589,0.0601,0.0558,0.0561,0.0661,0.0671,0.068,0.0676,0.0722,0.0726,0.0729,0.0783,0.0782,0.078,0,0,0,0,0,0,0.0318,0.0332,0.0454,0.0403,0.0419,0.0478,0.0508,0.0518,0.0531,0.0601,0.0613,0.0559,0.0662,0.0674,0.0705,0.0682,0.0728,0.0732,0.0784,0.0783,0.0781,0.0687,0,0,0,0,0,0,0.0314,0.0331,0.0331,0.0403,0.0422,0.0453,0.0508,0.052,0.0537,0.0542,0.0606,0.0617,0.0663,0.0699,0.071,0.0688,0.0736,0.0786,0.0783,0.0782,0.0691,0.0682,0.0674,0,0,0,0,0,0.0308,0.0294,0.0331,0.0345,0.0427,0.0451,0.046,0.0503,0.0537,0.052,0.0579,0.0615,0.0693,0.0701,0.0715,0.0694,0.0787,0.0784,0.0782,0.0695,0.0684,0.0675,0,0,0,0,0,0,0.0196,0.0302,0.0343,0.0356,0.0391,0.046,0.0447,0.0493,0.0528,0.053,0.0611,0.0625,0.0644,0.068,0.0687,0.0703,0.0742,0.0742,0.0671,0.0662,0.0653,0.0588,0.0739,0,0,0,0,0,0.0181,0.021,0.0296,0.0293,0.0316,0.0385,0.0399,0.0429,0.0478,0.0494,0.0553,0.0604,0.0645,0.0661,0.0701,0.0711,0.0738,0.0703,0.0695,0.0687,0.0642,0.0648,0.0636,0.0772,0.0772,0.0773,0,0,0.0127,0.0192,0.0201,0.0273,0.0309,0.0309,0.0392,0.0396,0.039,0.05,0.0509,0.058,0.0643,0.0657,0.0666,0.0682,0.0676,0.0684,0.0678,0.0636,0.0644,0.0631,0.0619,0.0771,0.0771,0.0771,0,0,0.002,0.0101,0.0086,0.0123,0.0176,0.0228,0.0226,0.03,0.0326,0.0351,0.0432,0.0479,0.0544,0.0583,0.0611,0.0575,0.0635,0.0598,0.0497,0.0505,0.0493,0.0483,0.0554,0.0551,0.0587,0.0587,0.0587,0,-0.0054,-0.0036,0.007,0.0063,0.0078,0.0187,0.0154,0.0194,0.0263,0.0278,0.0328,0.0429,0.0497,0.051,0.0506,0.0553,0.0587,0.0535,0.0492,0.0482,0.0472,0.0548,0.0545,0.0582,0.0583,0.0583,0.0584,0,-0.0161,-0.0149,-0.0162,-0.0111,-0.009,-0.0102,-0.0017,0.0005,0.0072,0.0122,0.016,0.0264,0.0317,0.036,0.0425,0.0402,0.0462,0.0487,0.0513,0.0452,0.0537,0.0536,0.0575,0.0577,0.0578,0.058,0,0,-0.0308,-0.0248,-0.0251,-0.0248,-0.0175,-0.0168,-0.017,-0.0135,-0.0127,-0.0056,-0.0048,0.0038,0.0113,0.0148,0.0249,0.0263,0.0276,0.0337,0.034,0.0399,0.0333,0.0432,0.0442,0.0291,0.0288,0.0287,0.0439,0,-0.0424,-0.047,-0.0404,-0.0455,-0.0461,-0.0361,-0.0364,-0.032,-0.0247,-0.0205,-0.0111,-0.0059,0.0028,0.0079,0.0095,0.0249,0.0258,0.0234,0.0387,0.0392,0.0479,0.0437,0.0473,0.0613,0.0438,0.0438,0.0438,0,-0.0533,-0.0541,-0.0607,-0.0581,-0.0576,-0.0587,-0.0541,-0.0533,-0.0451,-0.0396,-0.0344,-0.0238,-0.0169,-0.0094,0.0051,0.0036,0.0144,0.0247,0.0256,0.0362,0.0485,0.0635,0.0619,0.077,0.0437,0.0437,0.0437,0,-0.0648,-0.0671,-0.0722,-0.0715,-0.0678,-0.0689,-0.0667,-0.0597,-0.0569,-0.0509,-0.0459,-0.0385,-0.0286,-0.0199,0.0042,0.0036,0.0216,0.0243,0.0421,0.0434,0.0497,0.0518,0.0625,0.0271,0.027,0.027,0.0269,0,-0.0757,-0.0794,-0.0775,-0.0796,-0.0849,-0.0789,-0.0812,-0.0773,-0.0701,-0.0645,-0.0561,-0.0473,-0.0314,-0.0157,-0.0006,0.0235,0.0177,0.0383,0.0454,0.0476,0.0491,0.0652,0.0714,0.0276,0.0274,0.0273,0.0272,0,-0.085,-0.0844,-0.0892,-0.089,-0.0894,-0.0924,-0.0885,-0.0878,-0.0808,-0.0723,-0.07,-0.0526,-0.0314,-0.0126,0.0092,0.0224,0.052,0.0495,0.0549,0.0621,0.0903,0.0958,0.1109,0.1215,0.0694,0.0697,0.07,0,-0.0895,-0.0929,-0.096,-0.0987,-0.0983,-0.1009,-0.1006,-0.0945,-0.0884,-0.0717,-0.065,-0.0455,-0.0252,0.0102,0.0334,0.0592,0.0677,0.0764,0.0725,0.0904,0.1018,0.1041,0.1119,0.081,0.0814,0.0816,0.0818,0,-0.0969,-0.0973,-0.1009,-0.1066,-0.1082,-0.1081,-0.1041,-0.0967,-0.0835,-0.0694,-0.0446,-0.0291,-0.0009,0.032,0.0609,0.074,0.0883,0.0827,0.0971,0.1065,0.1133,0.1276,0.0778,0.0841,0.0839,0.0837,0.0836,0.0835,-0.1004,-0.1047,-0.1083,-0.1123,-0.114,-0.1051,-0.095,-0.0821,-0.0617,-0.0276,-0.0212,0.0123,0.0317,0.0739,0.09,0.1187,0.1123,0.1253,0.1299,0.1301,0.1396,0.0979,0.1141,0.114,0.114,0.1139,0.1139,0,-0.1026,-0.1067,-0.1128,-0.1119,-0.1066,-0.1072,-0.0899,-0.0711,-0.0343,-0.0077,0.0218,0.0641,0.0958,0.1145,0.1472,0.1644,0.1658,0.1703,0.1717,0.1771,0.1371,0.1368,0.1636,0.1636,0.1636,0.1636,0.1636,0.1635,-0.1034,-0.1094,-0.1118,-0.1025,-0.0969,-0.0775,-0.0599,-0.0315,-0.0066,0.0465,0.0815,0.1007,0.1231,0.1696,0.2014,0.2029,0.2187,0.2154,0.2259,0.1959,0.1919,0.188,0.1892,0.2265,0.2266,0.2633,0.2637,0.264]}],[{"header":{"parameterUnit":"m.s-1","parameterCategory":2,"la1":30.2991,"la2":30.254,"lo1":-89.0895,"lo2":-89.0444,"dy":0.0017,"dx":0.0017,"nx":28,"ny":28,"refTime":"2024-04-14T09:00:00:Z","depth":"2","parameterNumber":2,"parameterNumberName":"U-component_of_CURRENTS"},"data":[0,0,0,0,0,0,0,0,0,0,0,0,0,0,0,0,0,0,0,0,0,0,0,0,0,0,0,0,0,0,0,0,0,0,0,0,0,0,0,0,0,0,0,0,0,0,0,0,0,0,0,0,0,0,0,0,0,0,-0.2394,-0.2396,0,-0.2528,-0.2529,-0.253,-0.2523,-0.2522,-0.2521,-0.252,-0.2558,-0.256,-0.2561,0,0,0,0,0,0,0,0,0,0,0,0,0,-0.2296,-0.2296,-0.2394,-0.2396,-0.2399,-0.2528,-0.2529,-0.253,-0.2523,-0.2522,-0.2521,-0.252,-0.2557,-0.2559,-0.2562,0,0,0,0,0,0,0,0,0,0,0,0,0,-0.2364,-0.2296,-0.2393,-0.2419,-0.2424,-0.2528,-0.2529,-0.253,-0.2523,-0.2522,-0.252,-0.2519,-0.2556,-0.2559,-0.2562,-0.2606,0,0,-0.257,-0.2572,0,0,0,0,0,0,0,0,-0.236,-0.2366,-0.2413,-0.2418,-0.2423,-0.2517,-0.251,-0.2555,-0.2523,-0.2474,-0.252,-0.2518,-0.2544,-0.2547,-0.2561,-0.2608,-0.261,-0.2571,-0.2572,-0.2573,-0.2574,0,0,0,0,0,0,0,-0.2355,-0.2362,-0.2436,-0.2416,-0.2423,-0.2483,-0.2488,-0.2518,-0.2504,-0.2478,-0.248,-0.2514,-0.2544,-0.2558,-0.2562,-0.261,-0.2571,-0.2573,-0.2575,-0.2576,-0.2687,-0.2688,0,0,0,0,0,0,-0.2354,-0.2356,-0.2432,-0.2441,-0.2401,-0.2485,-0.2491,-0.2479,-0.2506,-0.2513,-0.2515,-0.2513,-0.2554,-0.2559,-0.2563,-0.2556,-0.2573,-0.2576,-0.2578,-0.2686,-0.2687,-0.2689,0,0,0,0,0,0,-0.2351,-0.2357,-0.2426,-0.2414,-0.2428,-0.2488,-0.2476,-0.2483,-0.2519,-0.2537,-0.2539,-0.2547,-0.2553,-0.2559,-0.2593,-0.2559,-0.2577,-0.258,-0.2684,-0.2686,-0.2688,-0.2581,0,0,0,0,0,0,-0.2346,-0.2354,-0.2353,-0.2412,-0.2429,-0.2488,-0.2479,-0.2487,-0.2546,-0.2545,-0.2566,-0.2567,-0.2553,-0.2589,-0.2596,-0.2564,-0.2582,-0.2683,-0.2685,-0.2687,-0.2583,-0.2579,-0.2576,0,0,0,0,0,-0.2341,-0.2379,-0.235,-0.2362,-0.242,-0.249,-0.2503,-0.2536,-0.2549,-0.2563,-0.2575,-0.2567,-0.2609,-0.2592,-0.26,-0.2568,-0.2681,-0.2684,-0.2687,-0.2584,-0.258,-0.2576,0,0,0,0,0,0,-0.235,-0.2384,-0.2354,-0.2397,-0.2428,-0.2493,-0.2538,-0.2559,-0.2585,-0.2584,-0.2589,-0.2591,-0.26,-0.263,-0.2612,-0.2616,-0.2643,-0.2647,-0.2562,-0.2558,-0.2554,-0.2559,-0.2584,0,0,0,0,0,-0.2344,-0.2367,-0.2396,-0.2428,-0.2444,-0.2487,-0.2528,-0.2542,-0.2581,-0.2592,-0.2608,-0.2625,-0.262,-0.2626,-0.2639,-0.2657,-0.2673,-0.2647,-0.2643,-0.2639,-0.2655,-0.2656,-0.2652,-0.2698,-0.2698,-0.2698,0,0,-0.2346,-0.2385,-0.2386,-0.2431,-0.2457,-0.248,-0.2505,-0.2569,-0.2579,-0.2594,-0.262,-0.2619,-0.2628,-0.2618,-0.2627,-0.2635,-0.2632,-0.2643,-0.2638,-0.2657,-0.2659,-0.2654,-0.2649,-0.27,-0.27,-0.27,0,0,-0.2382,-0.2397,-0.2409,-0.2441,-0.2496,-0.2516,-0.2538,-0.2592,-0.2599,-0.2639,-0.262,-0.2605,-0.2657,-0.2606,-0.2598,-0.2604,-0.2614,-0.2621,-0.2595,-0.2595,-0.259,-0.2586,-0.2568,-0.2563,-0.2615,-0.2615,-0.2615,0,-0.2375,-0.2393,-0.2431,-0.2462,-0.2494,-0.2529,-0.2542,-0.2565,-0.2621,-0.2623,-0.2643,-0.2658,-0.2639,-0.2589,-0.2565,-0.2584,-0.2602,-0.2591,-0.2583,-0.258,-0.2578,-0.2561,-0.2557,-0.261,-0.2611,-0.2611,-0.2611,0,-0.2398,-0.242,-0.2454,-0.2467,-0.2503,-0.2545,-0.2565,-0.2587,-0.2617,-0.263,-0.2628,-0.261,-0.2612,-0.2586,-0.257,-0.2528,-0.255,-0.2571,-0.2576,-0.2565,-0.255,-0.2547,-0.2603,-0.2605,-0.2606,-0.2607,0,0,-0.2342,-0.2435,-0.244,-0.245,-0.2511,-0.2543,-0.2557,-0.2568,-0.2583,-0.2608,-0.2618,-0.2564,-0.2565,-0.2559,-0.2523,-0.2504,-0.2451,-0.2529,-0.2531,-0.2479,-0.2452,-0.236,-0.2349,-0.2477,-0.2477,-0.2477,-0.2434,0,-0.2325,-0.2385,-0.2431,-0.2464,-0.2486,-0.2524,-0.2541,-0.256,-0.2587,-0.2609,-0.2577,-0.2582,-0.2552,-0.254,-0.2511,-0.2484,-0.2449,-0.2461,-0.2501,-0.2502,-0.2394,-0.2344,-0.2172,-0.2112,-0.2432,-0.2432,-0.2431,0,-0.2297,-0.2356,-0.2386,-0.2462,-0.247,-0.2489,-0.2521,-0.2542,-0.2565,-0.2591,-0.2587,-0.2598,-0.254,-0.2544,-0.2487,-0.2508,-0.2472,-0.2452,-0.2451,-0.2408,-0.2406,-0.2187,-0.2096,-0.2428,-0.2428,-0.2428,-0.2429,0,-0.2235,-0.2314,-0.2342,-0.237,-0.2453,-0.246,-0.2491,-0.2526,-0.2545,-0.2574,-0.2601,-0.258,-0.2565,-0.2546,-0.2487,-0.2502,-0.2448,-0.2462,-0.2341,-0.2334,-0.2218,-0.22,-0.2424,-0.2424,-0.2424,-0.2424,-0.2424,0,-0.2205,-0.2226,-0.2319,-0.2342,-0.2365,-0.2432,-0.2452,-0.2482,-0.2533,-0.2537,-0.258,-0.257,-0.2573,-0.2544,-0.2502,-0.2402,-0.2455,-0.2324,-0.2313,-0.2174,-0.2154,-0.2473,-0.2479,-0.2422,-0.2423,-0.2423,-0.2423,0,-0.212,-0.2191,-0.2225,-0.2314,-0.2338,-0.2348,-0.2425,-0.2441,-0.2506,-0.2514,-0.2525,-0.2561,-0.2513,-0.2499,-0.2448,-0.2393,-0.2328,-0.2276,-0.2101,-0.2068,-0.2214,-0.2216,-0.2146,-0.2142,-0.2139,-0.2136,-0.2134,0,-0.2078,-0.2092,-0.218,-0.2193,-0.2228,-0.227,-0.2296,-0.2397,-0.2417,-0.2479,-0.2466,-0.2462,-0.2392,-0.2306,-0.222,-0.2129,-0.2218,-0.1934,-0.1912,-0.2187,-0.2184,-0.2191,-0.2197,-0.1709,-0.1703,-0.1699,-0.1695,0,-0.198,-0.201,-0.2041,-0.2076,-0.2107,-0.2141,-0.2189,-0.221,-0.2302,-0.2332,-0.2308,-0.2267,-0.2179,-0.1995,-0.1908,-0.1843,-0.1942,-0.1837,-0.2165,-0.1808,-0.1772,-0.177,-0.1791,-0.1655,-0.1659,-0.1662,-0.1664,-0.1666,-0.1875,-0.1868,-0.1904,-0.1916,-0.1954,-0.1956,-0.1928,-0.2003,-0.2018,-0.2008,-0.2071,-0.1954,-0.191,-0.1662,-0.1566,-0.1512,-0.1647,-0.1588,-0.1604,-0.1623,-0.1582,-0.1543,-0.1375,-0.1377,-0.1379,-0.1381,-0.1382,0,-0.1725,-0.1734,-0.174,-0.1739,-0.17,-0.1783,-0.1803,-0.1745,-0.1703,-0.1756,-0.1716,-0.1489,-0.1362,-0.1338,-0.1171,-0.1138,-0.1148,-0.111,-0.1122,-0.1161,-0.1197,-0.1136,-0.0809,-0.0807,-0.0806,-0.0804,0,0,-0.1642,-0.1596,-0.1601,-0.1472,-0.1466,-0.1365,-0.1337,-0.1305,-0.1302,-0.1245,-0.1213,-0.1289,-0.1281,-0.1038,-0.0983,-0.0864,-0.1009,-0.0825,-0.1283,-0.1336,-0.1369,-0.1466,-0.1416,0,0,0,0,0]},{"header":{"parameterUnit":"m.s-1","parameterCategory":2,"la1":30.2991,"la2":30.254,"lo1":-89.0895,"lo2":-89.0444,"dy":0.0017,"dx":0.0017,"nx":28,"ny":28,"refTime":"2024-04-14T09:00:00:Z","depth":"2","parameterNumber":3,"parameterNumberName":"V-component_of_CURRENTS"},"data":[0,0,0,0,0,0,0,0,0,0,0,0,0,0,0,0,0,0,0,0,0,0,0,0,0,0,0,0,0,0,0,0,0,0,0,0,0,0,0,0,0,0,0,0,0,0,0,0,0,0,0,0,0,0,0,0,0,0,-0.0541,-0.054,0,-0.0426,-0.0425,-0.0423,-0.0368,-0.0369,-0.0369,-0.0369,-0.0235,-0.0232,-0.0228,0,0,0,0,0,0,0,0,0,0,0,0,0,-0.0583,-0.0583,-0.0541,-0.054,-0.0539,-0.0426,-0.0425,-0.0423,-0.0368,-0.0369,-0.0369,-0.0369,-0.0236,-0.0232,-0.0227,0,0,0,0,0,0,0,0,0,0,0,0,0,-0.0525,-0.0583,-0.0541,-0.0499,-0.0494,-0.0427,-0.0425,-0.0422,-0.0368,-0.0369,-0.0369,-0.0369,-0.0238,-0.0232,-0.0227,-0.0187,0,0,-0.021,-0.0207,0,0,0,0,0,0,0,0,-0.0529,-0.0524,-0.0506,-0.0502,-0.0496,-0.0413,-0.039,-0.0343,-0.0368,-0.0415,-0.0369,-0.0369,-0.0294,-0.0283,-0.0259,-0.0181,-0.0175,-0.0209,-0.0206,-0.0203,-0.0202,0,0,0,0,0,0,0,-0.0533,-0.0527,-0.0494,-0.0505,-0.0499,-0.0441,-0.0434,-0.038,-0.0353,-0.0411,-0.0407,-0.0396,-0.0291,-0.0265,-0.0256,-0.0173,-0.0209,-0.0204,-0.0201,-0.0199,-0.0003,-0.0001,0,0,0,0,0,0,-0.0557,-0.0532,-0.0498,-0.0491,-0.0515,-0.0441,-0.0433,-0.0438,-0.0353,-0.0341,-0.0396,-0.0394,-0.0274,-0.0263,-0.0251,-0.0202,-0.0204,-0.0198,-0.0195,-0.0005,-0.0003,-0.0001,0,0,0,0,0,0,-0.0558,-0.0555,-0.0503,-0.0509,-0.0498,-0.0441,-0.0447,-0.0436,-0.0408,-0.0343,-0.033,-0.038,-0.0274,-0.0259,-0.0202,-0.0196,-0.0196,-0.0191,-0.0007,-0.0004,-0.0002,-0.0101,0,0,0,0,0,0,-0.056,-0.0557,-0.0567,-0.0511,-0.0499,-0.0462,-0.0446,-0.0434,-0.0402,-0.0398,-0.0324,-0.0312,-0.0273,-0.0211,-0.0197,-0.0188,-0.0186,-0.0009,-0.0006,-0.0002,-0.01,-0.0102,-0.0104,0,0,0,0,0,-0.0562,-0.0567,-0.0569,-0.0564,-0.0517,-0.0462,-0.045,-0.0408,-0.0401,-0.0385,-0.0339,-0.0314,-0.0178,-0.0206,-0.0189,-0.0179,-0.0011,-0.0007,-0.0003,-0.0099,-0.0102,-0.0104,0,0,0,0,0,0,-0.0582,-0.0561,-0.0562,-0.056,-0.0519,-0.0453,-0.0434,-0.0409,-0.0358,-0.0358,-0.0301,-0.0285,-0.0233,-0.0179,-0.0211,-0.0104,-0.0085,-0.0078,-0.0164,-0.0166,-0.0167,-0.0167,-0.0182,0,0,0,0,0,-0.0597,-0.0601,-0.0563,-0.0559,-0.0545,-0.0493,-0.0467,-0.0439,-0.0388,-0.0366,-0.0313,-0.025,-0.02,-0.0166,-0.0109,-0.0054,-0.0008,-0.0027,-0.0029,-0.0032,-0.0015,0.0043,0.0046,0.0013,0.0013,0.0013,0,0,-0.0608,-0.0591,-0.0597,-0.0564,-0.0532,-0.0505,-0.0477,-0.0438,-0.0411,-0.0359,-0.0304,-0.0261,-0.0187,-0.0133,-0.0102,-0.009,0.0002,-0.0026,-0.003,-0.001,0.0047,0.005,0.0053,0.0016,0.0015,0.0015,0,0,-0.0611,-0.0614,-0.0615,-0.0585,-0.0542,-0.0509,-0.0502,-0.044,-0.041,-0.0355,-0.0317,-0.0268,-0.0176,-0.0129,-0.0093,-0.006,-0.0017,-0.0037,-0.0043,0.0011,0.0013,0.0015,0.0059,0.0067,-0.0032,-0.0032,-0.0032,0,-0.0627,-0.0625,-0.0601,-0.0582,-0.0562,-0.0517,-0.0501,-0.0458,-0.0382,-0.0356,-0.0345,-0.0219,-0.017,-0.0108,-0.0099,-0.0068,-0.0032,-0.0058,0.0003,0.0007,0.0011,0.0056,0.0065,-0.0036,-0.0035,-0.0035,-0.0035,0,-0.0626,-0.0623,-0.0613,-0.059,-0.056,-0.0537,-0.0486,-0.0449,-0.0414,-0.0369,-0.0301,-0.0235,-0.016,-0.0139,-0.0111,-0.0052,-0.0036,-0.0022,-0.001,0.0007,0.0055,0.0066,-0.0042,-0.0041,-0.0039,-0.0038,0,0,-0.0673,-0.0629,-0.0628,-0.0623,-0.0568,-0.0545,-0.05,-0.0448,-0.0423,-0.0349,-0.0307,-0.0223,-0.0192,-0.0146,-0.0107,-0.0054,-0.0012,-0.0029,-0.0024,-0.0015,0.0101,0.0138,0.0154,-0.0,0.0002,0.0003,0.0114,0,-0.0686,-0.0674,-0.0635,-0.0618,-0.0614,-0.0558,-0.0522,-0.0466,-0.0414,-0.0359,-0.0285,-0.0233,-0.0193,-0.0175,-0.0114,-0.0038,0.0018,-0.0043,0.0114,0.0119,0.0123,0.0169,0.0131,0.023,0.0125,0.0127,0.0129,0,-0.0701,-0.0695,-0.0691,-0.0653,-0.0645,-0.0622,-0.0573,-0.0531,-0.0442,-0.04,-0.0329,-0.027,-0.0183,-0.0161,-0.0008,-0.0052,0.0027,0.0089,0.0094,0.0178,0.0178,0.0206,0.0255,0.0148,0.0147,0.0145,0.0144,0,-0.0764,-0.073,-0.0736,-0.0724,-0.0673,-0.0658,-0.0628,-0.0551,-0.052,-0.0433,-0.0402,-0.0288,-0.0234,-0.0118,0.0019,0.0003,0.0187,0.0178,0.0292,0.0295,0.0325,0.0327,0.0299,0.0299,0.0299,0.0298,0.0298,0,-0.08,-0.08,-0.0772,-0.0779,-0.0787,-0.0723,-0.0709,-0.0659,-0.0584,-0.0537,-0.0439,-0.0375,-0.022,-0.0096,0.002,0.0201,0.0194,0.0314,0.0338,0.029,0.0288,0.0272,0.0267,0.0302,0.0302,0.0301,0.03,0,-0.086,-0.0838,-0.085,-0.0823,-0.0819,-0.0829,-0.0781,-0.0761,-0.0682,-0.0618,-0.0594,-0.0436,-0.0266,-0.0103,0.0097,0.0205,0.0363,0.0428,0.0359,0.0375,0.043,0.042,0.0564,0.0567,0.0569,0.0571,0.0572,0,-0.0887,-0.0901,-0.0909,-0.093,-0.0922,-0.0921,-0.0914,-0.0833,-0.0795,-0.0641,-0.0609,-0.0435,-0.0283,0.0019,0.0229,0.045,0.0434,0.0537,0.0514,0.0455,0.0464,0.045,0.0437,0.0505,0.0505,0.0506,0.0507,0,-0.0943,-0.0948,-0.0966,-0.1019,-0.1031,-0.1036,-0.1009,-0.0998,-0.0871,-0.0784,-0.0625,-0.0491,-0.0173,0.0085,0.0367,0.0476,0.0496,0.0559,0.0535,0.0442,0.0408,0.0413,0.04,0.0512,0.0512,0.0511,0.0511,0.0511,-0.0985,-0.1024,-0.1054,-0.1097,-0.112,-0.1137,-0.1135,-0.1075,-0.1005,-0.0851,-0.0673,-0.0438,-0.0152,0.0246,0.0454,0.0611,0.0601,0.0626,0.062,0.0615,0.0587,0.0559,0.0686,0.0686,0.0686,0.0687,0.0687,0,-0.1029,-0.1068,-0.1123,-0.1175,-0.121,-0.1199,-0.1175,-0.1133,-0.1047,-0.087,-0.0682,-0.0345,-0.0034,0.0234,0.052,0.0707,0.0664,0.0701,0.0619,0.0612,0.0607,0.0575,0.0673,0.0673,0.0674,0.0675,0,0,-0.1053,-0.1115,-0.1146,-0.1227,-0.1263,-0.1274,-0.126,-0.1179,-0.1038,-0.0859,-0.0667,-0.0404,-0.0018,0.0186,0.0416,0.056,0.0524,0.0547,0.0536,0.0405,0.0397,0.054,0.0482,0,0,0,0,0]}],[{"header":{"parameterUnit":"m.s-1","parameterCategory":2,"la1":30.2991,"la2":30.254,"lo1":-89.0895,"lo2":-89.0444,"dy":0.0017,"dx":0.0017,"nx":28,"ny":28,"refTime":"2024-04-14T09:00:00:Z","depth":"4","parameterNumber":2,"parameterNumberName":"U-component_of_CURRENTS"},"data":[0,0,0,0,0,0,0,0,0,0,0,0,0,0,0,0,0,0,0,0,0,0,0,0,0,0,0,0,0,0,0,0,0,0,0,0,0,0,0,0,0,0,0,0,0,0,0,0,0,0,0,0,0,0,0,0,0,0,-0.1429,-0.143,0,-0.1505,-0.1506,-0.1507,-0.1547,-0.1547,-0.1547,-0.1548,-0.164,-0.1642,-0.1645,0,0,0,0,0,0,0,0,0,0,0,0,0,-0.1356,-0.1357,-0.1429,-0.143,-0.1431,-0.1505,-0.1506,-0.1507,-0.1547,-0.1547,-0.1547,-0.1548,-0.1639,-0.1642,-0.1645,0,0,0,0,0,0,0,0,0,0,0,0,0,-0.1405,-0.1357,-0.1429,-0.146,-0.1464,-0.1505,-0.1506,-0.1507,-0.1547,-0.1547,-0.1548,-0.1548,-0.1638,-0.1642,-0.1645,-0.1664,0,0,-0.1656,-0.1658,0,0,0,0,0,0,0,0,-0.1402,-0.1407,-0.1455,-0.1458,-0.1462,-0.1517,-0.1514,-0.156,-0.1547,-0.1515,-0.1548,-0.1548,-0.16,-0.1607,-0.162,-0.1668,-0.1672,-0.1656,-0.1658,-0.166,-0.1661,0,0,0,0,0,0,0,-0.1398,-0.1405,-0.1459,-0.1456,-0.146,-0.1483,-0.149,-0.1523,-0.1556,-0.1518,-0.1521,-0.153,-0.1603,-0.1617,-0.1623,-0.1673,-0.1656,-0.1659,-0.1662,-0.1663,-0.1779,-0.178,0,0,0,0,0,0,-0.1388,-0.1401,-0.1456,-0.1461,-0.1432,-0.1484,-0.1492,-0.1499,-0.1555,-0.1564,-0.153,-0.1532,-0.1611,-0.1619,-0.1626,-0.1703,-0.166,-0.1663,-0.1665,-0.1778,-0.1779,-0.178,0,0,0,0,0,0,-0.1386,-0.1392,-0.1453,-0.1433,-0.1443,-0.1485,-0.1493,-0.15,-0.1541,-0.1564,-0.1573,-0.1566,-0.1611,-0.1621,-0.1681,-0.1705,-0.1665,-0.1668,-0.1777,-0.1778,-0.178,-0.1824,0,0,0,0,0,0,-0.1383,-0.1391,-0.1405,-0.1432,-0.1443,-0.1497,-0.1493,-0.1502,-0.1545,-0.1549,-0.1598,-0.1605,-0.1612,-0.1676,-0.1684,-0.1709,-0.1671,-0.1776,-0.1777,-0.1779,-0.1822,-0.1827,-0.1832,0,0,0,0,0,-0.138,-0.1397,-0.1405,-0.1412,-0.1457,-0.1498,-0.1507,-0.1537,-0.1546,-0.1573,-0.1605,-0.1605,-0.1692,-0.168,-0.169,-0.1716,-0.1775,-0.1777,-0.1779,-0.1819,-0.1826,-0.1832,0,0,0,0,0,0,-0.1378,-0.1404,-0.1413,-0.1438,-0.1474,-0.1506,-0.1539,-0.1554,-0.16,-0.1613,-0.1629,-0.1639,-0.169,-0.1702,-0.1687,-0.1752,-0.1729,-0.1733,-0.1756,-0.1762,-0.1767,-0.1775,-0.1674,0,0,0,0,0,-0.1381,-0.1403,-0.1431,-0.1458,-0.1479,-0.1514,-0.1539,-0.1559,-0.1597,-0.1619,-0.1652,-0.1682,-0.1703,-0.1733,-0.1752,-0.1807,-0.1799,-0.1825,-0.183,-0.1834,-0.1846,-0.1859,-0.1866,-0.1787,-0.1787,-0.1787,0,0,-0.1392,-0.1408,-0.1423,-0.146,-0.1494,-0.1531,-0.1531,-0.1581,-0.1616,-0.1622,-0.1693,-0.1703,-0.1718,-0.1765,-0.1789,-0.1785,-0.1849,-0.1837,-0.1841,-0.185,-0.1862,-0.1869,-0.1876,-0.1789,-0.1788,-0.1788,0,0,-0.1423,-0.1439,-0.147,-0.1502,-0.1551,-0.1566,-0.1585,-0.1634,-0.1664,-0.1724,-0.1723,-0.1757,-0.181,-0.1821,-0.183,-0.188,-0.1866,-0.1883,-0.1932,-0.1945,-0.1951,-0.1957,-0.194,-0.1944,-0.1898,-0.1898,-0.1898,0,-0.1437,-0.1473,-0.149,-0.153,-0.1562,-0.1584,-0.163,-0.1661,-0.1723,-0.1753,-0.1756,-0.1822,-0.1834,-0.1877,-0.1889,-0.1893,-0.1888,-0.1908,-0.1951,-0.1957,-0.1962,-0.1944,-0.1947,-0.19,-0.19,-0.19,-0.1899,0,-0.1482,-0.1526,-0.1554,-0.1603,-0.1637,-0.1684,-0.1718,-0.1762,-0.1794,-0.182,-0.188,-0.1897,-0.1934,-0.1938,-0.1933,-0.1975,-0.1954,-0.1946,-0.1936,-0.1973,-0.195,-0.1954,-0.1904,-0.1903,-0.1902,-0.1901,0,0,-0.1468,-0.1566,-0.1578,-0.162,-0.168,-0.171,-0.1771,-0.1826,-0.1869,-0.192,-0.1974,-0.2006,-0.2012,-0.2023,-0.2018,-0.2037,-0.2057,-0.2017,-0.2016,-0.1999,-0.2068,-0.1911,-0.1899,-0.2061,-0.2062,-0.2063,-0.2031,0,-0.1503,-0.1591,-0.1626,-0.1709,-0.1758,-0.1796,-0.1849,-0.1899,-0.194,-0.1996,-0.2017,-0.206,-0.2044,-0.2062,-0.208,-0.2062,-0.2071,-0.2065,-0.2036,-0.2035,-0.189,-0.19,-0.2067,-0.2034,-0.2034,-0.2035,-0.2035,0,-0.1522,-0.1582,-0.1676,-0.177,-0.1794,-0.1841,-0.1918,-0.1967,-0.2034,-0.207,-0.2115,-0.2126,-0.2159,-0.2136,-0.2141,-0.214,-0.2112,-0.2095,-0.2093,-0.1936,-0.1883,-0.1993,-0.2041,-0.204,-0.204,-0.2039,-0.2039,0,-0.1493,-0.1607,-0.1684,-0.1719,-0.1826,-0.1874,-0.1921,-0.1994,-0.2038,-0.2112,-0.2145,-0.2187,-0.22,-0.2196,-0.2152,-0.2157,-0.2138,-0.2135,-0.1967,-0.1955,-0.2088,-0.2082,-0.2138,-0.2138,-0.2138,-0.2138,-0.2138,0,-0.1492,-0.1554,-0.1683,-0.1726,-0.1802,-0.1877,-0.1951,-0.2004,-0.2082,-0.2112,-0.2176,-0.2183,-0.2218,-0.2203,-0.2171,-0.2059,-0.2148,-0.197,-0.1938,-0.2104,-0.2101,-0.2089,-0.2083,-0.2137,-0.2137,-0.2138,-0.2138,0,-0.1439,-0.1534,-0.1623,-0.1755,-0.1794,-0.1842,-0.1952,-0.1992,-0.208,-0.2117,-0.214,-0.2189,-0.2149,-0.2153,-0.2124,-0.2051,-0.1984,-0.1923,-0.2083,-0.2061,-0.1792,-0.179,-0.174,-0.1734,-0.1729,-0.1725,-0.1721,0,-0.1417,-0.1467,-0.1619,-0.1657,-0.1718,-0.1805,-0.1853,-0.197,-0.1996,-0.2082,-0.2073,-0.2086,-0.2088,-0.1917,-0.1944,-0.1866,-0.184,-0.1806,-0.1818,-0.1777,-0.1753,-0.1758,-0.1762,-0.1714,-0.1712,-0.1711,-0.171,0,-0.1358,-0.1428,-0.1494,-0.1575,-0.1642,-0.1702,-0.1774,-0.1787,-0.1889,-0.2007,-0.1936,-0.1897,-0.1842,-0.1793,-0.1738,-0.1688,-0.1835,-0.1755,-0.1765,-0.1776,-0.1746,-0.1727,-0.1737,-0.1693,-0.1695,-0.1697,-0.1698,0,-0.1293,-0.1318,-0.1402,-0.1451,-0.1528,-0.1535,-0.161,-0.1622,-0.1668,-0.1776,-0.174,-0.1747,-0.1805,-0.1697,-0.1647,-0.1583,-0.1562,-0.1523,-0.1545,-0.1565,-0.152,-0.1457,-0.1282,0,0,0,0,0,-0.121,-0.1217,-0.126,-0.1298,-0.1364,-0.1397,-0.1513,-0.1588,-0.1709,-0.161,-0.1669,-0.1602,-0.1518,-0.1529,-0.142,-0.1565,-0.157,-0.1434,-0.1539,-0.1599,-0.1618,-0.1581,0,0,0,0,0,0,-0.115,-0.1192,-0.1208,-0.1142,-0.113,-0.1178,-0.1243,-0.1338,-0.1296,-0.1425,-0.1381,-0.1487,-0.1424,-0.1525,-0.137,-0.1376,-0.1408,-0.1462,-0.1458,-0.1588,-0.1605,-0.1621,-0.159,0,0,0,0,0]},{"header":{"parameterUnit":"m.s-1","parameterCategory":2,"la1":30.2991,"la2":30.254,"lo1":-89.0895,"lo2":-89.0444,"dy":0.0017,"dx":0.0017,"nx":28,"ny":28,"refTime":"2024-04-14T09:00:00:Z","depth":"4","parameterNumber":3,"parameterNumberName":"V-component_of_CURRENTS"},"data":[0,0,0,0,0,0,0,0,0,0,0,0,0,0,0,0,0,0,0,0,0,0,0,0,0,0,0,0,0,0,0,0,0,0,0,0,0,0,0,0,0,0,0,0,0,0,0,0,0,0,0,0,0,0,0,0,0,0,-0.0425,-0.0425,0,-0.0385,-0.0385,-0.0384,-0.0364,-0.0364,-0.0364,-0.0364,-0.0301,-0.0299,-0.0298,0,0,0,0,0,0,0,0,0,0,0,0,0,-0.0423,-0.0423,-0.0426,-0.0425,-0.0425,-0.0385,-0.0385,-0.0384,-0.0364,-0.0364,-0.0364,-0.0364,-0.0301,-0.0299,-0.0297,0,0,0,0,0,0,0,0,0,0,0,0,0,-0.0408,-0.0424,-0.0426,-0.041,-0.0408,-0.0386,-0.0385,-0.0384,-0.0364,-0.0364,-0.0364,-0.0364,-0.0302,-0.03,-0.0297,-0.0282,0,0,-0.029,-0.0289,0,0,0,0,0,0,0,0,-0.0408,-0.0408,-0.0412,-0.0411,-0.0409,-0.038,-0.0361,-0.0349,-0.0364,-0.038,-0.0364,-0.0364,-0.0325,-0.0321,-0.0313,-0.0279,-0.0277,-0.0289,-0.0288,-0.0287,-0.0286,0,0,0,0,0,0,0,-0.041,-0.0409,-0.0409,-0.0412,-0.041,-0.0383,-0.0382,-0.0358,-0.0353,-0.0379,-0.0377,-0.0373,-0.0324,-0.0316,-0.0312,-0.0276,-0.0289,-0.0287,-0.0286,-0.0285,-0.0227,-0.0227,0,0,0,0,0,0,-0.0418,-0.041,-0.0411,-0.0408,-0.0409,-0.0384,-0.0382,-0.0389,-0.0353,-0.0348,-0.0373,-0.0372,-0.032,-0.0315,-0.0309,-0.0275,-0.0287,-0.0285,-0.0283,-0.0227,-0.0227,-0.0227,0,0,0,0,0,0,-0.0419,-0.0419,-0.0412,-0.0408,-0.0405,-0.0384,-0.0392,-0.0388,-0.0386,-0.0349,-0.0344,-0.0376,-0.032,-0.0313,-0.0296,-0.0273,-0.0283,-0.0281,-0.0227,-0.0227,-0.0227,-0.0216,0,0,0,0,0,0,-0.0419,-0.042,-0.0432,-0.0409,-0.0406,-0.0406,-0.0392,-0.0387,-0.0384,-0.0382,-0.035,-0.0344,-0.0319,-0.03,-0.0294,-0.027,-0.0279,-0.0227,-0.0227,-0.0227,-0.0216,-0.0216,-0.0215,0,0,0,0,0,-0.0419,-0.0431,-0.0433,-0.0433,-0.0422,-0.0406,-0.0403,-0.0387,-0.0384,-0.0385,-0.0365,-0.0345,-0.0295,-0.0298,-0.0291,-0.0266,-0.0227,-0.0227,-0.0227,-0.0217,-0.0216,-0.0215,0,0,0,0,0,0,-0.0436,-0.0429,-0.0431,-0.0441,-0.043,-0.0403,-0.0402,-0.0394,-0.0379,-0.0379,-0.0347,-0.0339,-0.0317,-0.03,-0.0305,-0.0252,-0.0256,-0.0255,-0.0251,-0.025,-0.0249,-0.0236,-0.0277,0,0,0,0,0,-0.0446,-0.0457,-0.0442,-0.0452,-0.0447,-0.0429,-0.0423,-0.0413,-0.0395,-0.0389,-0.0363,-0.0337,-0.0309,-0.0289,-0.027,-0.0239,-0.0209,-0.0219,-0.0219,-0.0218,-0.0204,-0.0139,-0.013,-0.0227,-0.0227,-0.0227,0,0,-0.0459,-0.0455,-0.0463,-0.0457,-0.0447,-0.0434,-0.0425,-0.042,-0.0402,-0.0383,-0.0357,-0.034,-0.0305,-0.0272,-0.0259,-0.0253,-0.018,-0.0218,-0.0217,-0.0203,-0.0138,-0.0128,-0.0119,-0.0227,-0.0227,-0.0227,0,0,-0.0471,-0.0483,-0.0487,-0.0478,-0.0465,-0.0449,-0.0451,-0.0428,-0.0413,-0.0394,-0.0369,-0.0335,-0.0307,-0.0258,-0.0234,-0.0217,-0.0187,-0.0221,-0.019,-0.0128,-0.0118,-0.011,-0.0077,-0.0065,-0.0209,-0.0209,-0.0209,0,-0.0487,-0.0489,-0.0486,-0.0477,-0.0467,-0.0457,-0.0447,-0.0427,-0.0401,-0.0376,-0.039,-0.0316,-0.029,-0.0216,-0.021,-0.0209,-0.0187,-0.0194,-0.0124,-0.0115,-0.0106,-0.0074,-0.0061,-0.0209,-0.0209,-0.0209,-0.0209,0,-0.049,-0.0493,-0.0493,-0.048,-0.0468,-0.0463,-0.0433,-0.0417,-0.0404,-0.0375,-0.0324,-0.0288,-0.0237,-0.0223,-0.021,-0.013,-0.0141,-0.0138,-0.0121,-0.0095,-0.0064,-0.0051,-0.0208,-0.0208,-0.0208,-0.0208,0,0,-0.0522,-0.0501,-0.0503,-0.0495,-0.0469,-0.0461,-0.0426,-0.0383,-0.0357,-0.0325,-0.0277,-0.0216,-0.0197,-0.0169,-0.0141,-0.0078,-0.0004,-0.0083,-0.008,-0.0042,0.0112,0.0083,0.0094,0.0009,0.0012,0.0014,0.0104,0,-0.0526,-0.0521,-0.0498,-0.0485,-0.0479,-0.0446,-0.0414,-0.0374,-0.0341,-0.0297,-0.0232,-0.0194,-0.0176,-0.016,-0.0089,-0.0036,0.0032,-0.003,0.0075,0.0078,0.0056,0.0109,0.0022,0.0113,0.0116,0.0119,0.012,0,-0.053,-0.0528,-0.0524,-0.0489,-0.0481,-0.0469,-0.0419,-0.0387,-0.0311,-0.0284,-0.0217,-0.0183,-0.0088,-0.0091,0.0052,0.0005,0.0067,0.0113,0.0118,0.0101,0.0073,0.0085,0.0144,0.0142,0.014,0.0139,0.0137,0,-0.0561,-0.0538,-0.054,-0.0532,-0.0496,-0.048,-0.0455,-0.039,-0.0364,-0.0282,-0.0263,-0.0148,-0.0112,-0.0004,0.0084,0.0071,0.0228,0.0223,0.0263,0.026,0.0254,0.0244,0.0347,0.0347,0.0346,0.0346,0.0346,0,-0.0571,-0.0571,-0.0563,-0.0568,-0.0569,-0.052,-0.0502,-0.0457,-0.0394,-0.0359,-0.027,-0.0225,-0.0089,0.0006,0.0098,0.0213,0.0245,0.0287,0.0296,0.0251,0.024,0.0262,0.0251,0.035,0.0349,0.0348,0.0348,0,-0.0602,-0.0596,-0.0606,-0.059,-0.059,-0.0596,-0.0564,-0.0544,-0.0477,-0.0431,-0.041,-0.0281,-0.0155,-0.0023,0.0146,0.0213,0.0335,0.0372,0.0301,0.03,0.0321,0.031,0.0435,0.0435,0.0435,0.0435,0.0435,0,-0.0615,-0.0628,-0.0652,-0.0678,-0.0679,-0.068,-0.0679,-0.0609,-0.0584,-0.0463,-0.0445,-0.0312,-0.0219,-0.0002,0.0139,0.0323,0.0346,0.0405,0.039,0.0342,0.0338,0.0326,0.0315,0.0435,0.0435,0.0435,0.0435,0,-0.0644,-0.0666,-0.0685,-0.0748,-0.077,-0.0781,-0.077,-0.0757,-0.0658,-0.0596,-0.0464,-0.0324,-0.0181,-0.0008,0.0131,0.0265,0.0366,0.0406,0.0407,0.0394,0.0344,0.0337,0.0326,0.0435,0.0435,0.0435,0.0435,0,-0.0675,-0.0711,-0.0754,-0.0799,-0.0844,-0.0868,-0.0851,-0.0792,-0.0744,-0.0591,-0.0548,-0.0359,-0.0233,-0.0037,0.0095,0.0218,0.025,0.0287,0.0295,0.0296,0.0225,0.0139,0.0197,0,0,0,0,0,-0.0694,-0.0738,-0.0795,-0.0847,-0.0895,-0.0913,-0.09,-0.0863,-0.0767,-0.0684,-0.0606,-0.046,-0.0222,-0.011,0.0007,0.0068,0.0244,0.0208,0.0281,0.0436,0.0436,0.0373,0,0,0,0,0,0,-0.0709,-0.0772,-0.0801,-0.0876,-0.0917,-0.0957,-0.0953,-0.0891,-0.0825,-0.071,-0.0587,-0.0448,-0.0232,-0.0299,0.0001,0.0045,0.0105,0.0339,0.0341,0.0436,0.0436,0.0436,0.0371,0,0,0,0,0]}]]